Year,Month,Day,Hour,Minute,Value (Times are PST for temperature in C)
2016,02,16,11,45,10.70
2016,02,16,11,46,10.70
2016,02,16,11,47,10.70
2016,02,16,11,48,10.70
2016,02,16,11,49,10.80
2016,02,16,11,50,10.80
2016,02,16,11,51,10.80
2016,02,16,11,52,10.70
2016,02,16,11,53,10.70
2016,02,16,11,54,10.70
2016,02,16,11,55,10.70
2016,02,16,11,56,10.70
2016,02,16,11,57,10.70
2016,02,16,11,58,10.70
2016,02,16,11,59,10.70
2016,02,16,12,00,10.70
2016,02,16,12,01,10.70
2016,02,16,12,02,10.70
2016,02,16,12,03,10.70
2016,02,16,12,04,10.80
2016,02,16,12,05,10.80
2016,02,16,12,06,10.80
2016,02,16,12,07,10.90
2016,02,16,12,08,11.00
2016,02,16,12,09,11.00
2016,02,16,12,10,11.10
2016,02,16,12,11,11.10
2016,02,16,12,12,11.10
2016,02,16,12,13,11.00
2016,02,16,12,14,11.00
2016,02,16,12,15,11.00
2016,02,16,12,16,11.00
2016,02,16,12,17,11.00
2016,02,16,12,18,11.00
2016,02,16,12,19,11.10
2016,02,16,12,20,11.20
2016,02,16,12,21,11.20
2016,02,16,12,22,11.30
2016,02,16,12,23,11.30
2016,02,16,12,24,11.40
2016,02,16,12,25,11.40
2016,02,16,12,26,11.50
2016,02,16,12,27,11.50
2016,02,16,12,28,11.60
2016,02,16,12,29,11.60
2016,02,16,12,30,11.70
2016,02,16,12,31,11.70
2016,02,16,12,32,11.70
2016,02,16,12,33,11.70
2016,02,16,12,34,11.70
2016,02,16,12,35,11.70
2016,02,16,12,36,11.80
2016,02,16,12,37,11.80
2016,02,16,12,38,11.80
2016,02,16,12,39,11.80
2016,02,16,12,40,11.80
2016,02,16,12,41,11.80
2016,02,16,12,42,11.80
2016,02,16,12,43,11.80
2016,02,16,12,44,11.80
2016,02,16,12,45,11.70
2016,02,16,12,46,11.60
2016,02,16,12,47,11.60
2016,02,16,12,48,11.60
2016,02,16,12,49,11.50
2016,02,16,12,50,11.50
2016,02,16,12,51,11.40
2016,02,16,12,52,11.40
2016,02,16,12,53,11.40
2016,02,16,12,54,11.40
2016,02,16,12,55,11.30
2016,02,16,12,56,11.20
2016,02,16,12,57,11.10
2016,02,16,12,58,11.10
2016,02,16,12,59,11.10
2016,02,16,13,00,11.10
2016,02,16,13,01,11.20
2016,02,16,13,02,11.20
2016,02,16,13,03,11.20
2016,02,16,13,04,11.30
2016,02,16,13,05,11.30
2016,02,16,13,06,11.40
2016,02,16,13,07,11.40
2016,02,16,13,08,11.50
2016,02,16,13,09,11.50
2016,02,16,13,10,11.50
2016,02,16,13,11,11.60
2016,02,16,13,12,11.60
2016,02,16,13,13,11.60
2016,02,16,13,14,11.50
2016,02,16,13,15,11.50
2016,02,16,13,16,11.40
2016,02,16,13,17,11.40
2016,02,16,13,18,11.40
2016,02,16,13,19,11.40
2016,02,16,13,20,11.40
2016,02,16,13,21,11.40
2016,02,16,13,22,11.30
2016,02,16,13,23,11.30
2016,02,16,13,24,11.20
2016,02,16,13,25,11.20
2016,02,16,13,26,11.20
2016,02,16,13,27,11.20
2016,02,16,13,28,11.10
2016,02,16,13,29,11.10
2016,02,16,13,30,11.10
2016,02,16,13,31,11.10
2016,02,16,13,32,11.10
2016,02,16,13,33,11.00
2016,02,16,13,34,11.00
2016,02,16,13,35,11.00
2016,02,16,13,36,11.00
2016,02,16,13,37,11.00
2016,02,16,13,38,11.00
2016,02,16,13,39,11.00
2016,02,16,13,40,11.00
2016,02,16,13,41,10.90
2016,02,16,13,42,10.90
2016,02,16,13,43,10.90
2016,02,16,13,44,10.80
2016,02,16,13,45,10.80
2016,02,16,13,46,10.70
2016,02,16,13,47,10.70
2016,02,16,13,48,10.70
2016,02,16,13,49,10.60
2016,02,16,13,50,10.60
2016,02,16,13,51,10.60
2016,02,16,13,52,10.60
2016,02,16,13,53,10.60
2016,02,16,13,54,10.60
2016,02,16,13,55,10.70
2016,02,16,13,56,10.70
2016,02,16,13,57,10.70
2016,02,16,13,58,10.80
2016,02,16,13,59,10.80
2016,02,16,14,00,10.90
2016,02,16,14,01,11.00
2016,02,16,14,02,11.10
2016,02,16,14,03,11.20
2016,02,16,14,04,11.30
2016,02,16,14,05,11.40
2016,02,16,14,06,11.50
2016,02,16,14,07,11.50
2016,02,16,14,08,11.50
2016,02,16,14,09,11.60
2016,02,16,14,10,11.50
2016,02,16,14,11,11.50
2016,02,16,14,12,11.50
2016,02,16,14,13,11.40
2016,02,16,14,14,11.40
2016,02,16,14,15,11.50
2016,02,16,14,16,11.50
2016,02,16,14,17,11.60
2016,02,16,14,18,11.60
2016,02,16,14,19,11.60
2016,02,16,14,20,11.70
2016,02,16,14,21,11.70
2016,02,16,14,22,11.70
2016,02,16,14,23,11.70
2016,02,16,14,24,11.80
2016,02,16,14,25,11.80
2016,02,16,14,26,11.80
2016,02,16,14,27,11.90
2016,02,16,14,28,11.90
2016,02,16,14,29,11.90
2016,02,16,14,30,12.00
2016,02,16,14,31,12.00
2016,02,16,14,32,12.00
2016,02,16,14,33,12.00
2016,02,16,14,34,12.00
2016,02,16,14,35,12.00
2016,02,16,14,36,12.00
2016,02,16,14,37,12.00
2016,02,16,14,38,11.90
2016,02,16,14,39,11.80
2016,02,16,14,40,11.70
2016,02,16,14,41,11.60
2016,02,16,14,42,11.60
2016,02,16,14,43,11.50
2016,02,16,14,44,11.50
2016,02,16,14,45,11.40
2016,02,16,14,46,11.40
2016,02,16,14,47,11.40
2016,02,16,14,48,11.40
2016,02,16,14,49,11.40
2016,02,16,14,50,11.40
2016,02,16,14,51,11.30
2016,02,16,14,52,11.30
2016,02,16,14,53,11.30
2016,02,16,14,54,11.30
2016,02,16,14,55,11.30
2016,02,16,14,56,11.30
2016,02,16,14,57,11.40
2016,02,16,14,58,11.40
2016,02,16,14,59,11.50
2016,02,16,15,00,11.50
2016,02,16,15,01,11.50
2016,02,16,15,02,11.40
2016,02,16,15,03,11.40
2016,02,16,15,04,11.40
2016,02,16,15,05,11.40
2016,02,16,15,06,11.40
2016,02,16,15,07,11.40
2016,02,16,15,08,11.40
2016,02,16,15,09,11.40
2016,02,16,15,10,11.40
2016,02,16,15,11,11.40
2016,02,16,15,12,11.40
2016,02,16,15,13,11.40
2016,02,16,15,14,11.40
2016,02,16,15,15,11.30
2016,02,16,15,16,11.30
2016,02,16,15,17,11.30
2016,02,16,15,18,11.20
2016,02,16,15,19,11.20
2016,02,16,15,20,11.20
2016,02,16,15,21,11.20
2016,02,16,15,22,11.10
2016,02,16,15,23,11.10
2016,02,16,15,24,11.00
2016,02,16,15,25,11.00
2016,02,16,15,26,10.90
2016,02,16,15,27,10.90
2016,02,16,15,28,10.90
2016,02,16,15,29,10.80
2016,02,16,15,30,10.80
2016,02,16,15,31,10.80
2016,02,16,15,32,10.80
2016,02,16,15,33,10.80
2016,02,16,15,34,10.80
2016,02,16,15,35,10.80
2016,02,16,15,36,10.80
2016,02,16,15,37,10.70
2016,02,16,15,38,10.70
2016,02,16,15,39,10.60
2016,02,16,15,40,10.60
2016,02,16,15,41,10.60
2016,02,16,15,42,10.50
2016,02,16,15,43,10.50
2016,02,16,15,44,10.50
2016,02,16,15,45,10.40
2016,02,16,15,46,10.40
2016,02,16,15,47,10.40
2016,02,16,15,48,10.40
2016,02,16,15,49,10.30
2016,02,16,15,50,10.30
2016,02,16,15,51,10.30
2016,02,16,15,52,10.30
2016,02,16,15,53,10.20
2016,02,16,15,54,10.20
2016,02,16,15,55,10.20
2016,02,16,15,56,10.20
2016,02,16,15,57,10.10
2016,02,16,15,58,10.10
2016,02,16,15,59,10.10
2016,02,16,16,00,10.10
2016,02,16,16,01,10.00
2016,02,16,16,02,10.00
2016,02,16,16,03,10.00
2016,02,16,16,04,10.00
2016,02,16,16,05,10.00
2016,02,16,16,06,10.00
2016,02,16,16,07,10.00
2016,02,16,16,08,9.90
2016,02,16,16,09,9.90
2016,02,16,16,10,9.90
2016,02,16,16,11,9.90
2016,02,16,16,12,9.90
2016,02,16,16,13,9.90
2016,02,16,16,14,9.90
2016,02,16,16,15,9.90
2016,02,16,16,16,9.90
2016,02,16,16,17,9.90
2016,02,16,16,18,9.90
2016,02,16,16,19,9.90
2016,02,16,16,20,9.90
2016,02,16,16,21,9.90
2016,02,16,16,22,9.80
2016,02,16,16,23,9.80
2016,02,16,16,24,9.80
2016,02,16,16,25,9.80
2016,02,16,16,26,9.80
2016,02,16,16,27,9.80
2016,02,16,16,28,9.80
2016,02,16,16,29,9.80
2016,02,16,16,30,9.80
2016,02,16,16,31,9.80
2016,02,16,16,32,9.80
2016,02,16,16,33,9.80
2016,02,16,16,34,9.80
2016,02,16,16,35,9.80
2016,02,16,16,36,9.80
2016,02,16,16,37,9.80
2016,02,16,16,38,9.80
2016,02,16,16,39,9.80
2016,02,16,16,40,9.80
2016,02,16,16,41,9.80
2016,02,16,16,42,9.80
2016,02,16,16,43,9.80
2016,02,16,19,27,8.30
2016,02,16,19,28,8.30
2016,02,16,19,29,8.30
2016,02,16,19,30,8.30
2016,02,16,19,31,8.30
2016,02,16,19,32,8.30
2016,02,16,19,33,8.30
2016,02,16,19,34,8.30
2016,02,16,19,35,8.30
2016,02,16,19,36,8.30
2016,02,16,19,37,8.30
2016,02,16,19,38,8.30
2016,02,16,19,39,8.30
2016,02,16,19,40,8.30
2016,02,16,19,41,8.30
2016,02,16,19,42,8.30
2016,02,16,19,43,8.30
2016,02,16,19,44,8.30
2016,02,16,19,45,8.30
2016,02,16,19,46,8.30
2016,02,16,19,47,8.30
2016,02,16,19,48,8.30
2016,02,16,19,49,8.30
2016,02,16,19,50,8.30
2016,02,16,19,51,8.30
2016,02,16,19,52,8.30
2016,02,16,19,53,8.30
2016,02,16,19,54,8.30
2016,02,16,19,55,8.30
2016,02,16,19,56,8.30
2016,02,16,19,57,8.30
2016,02,16,19,58,8.30
2016,02,16,19,59,8.30
2016,02,16,20,00,8.30
2016,02,16,20,01,8.30
2016,02,16,20,02,8.30
2016,02,16,20,03,8.30
2016,02,16,20,04,8.30
2016,02,16,20,05,8.30
2016,02,16,20,06,8.30
2016,02,16,20,07,8.30
2016,02,16,20,08,8.30
2016,02,16,20,09,8.30
2016,02,16,20,10,8.30
2016,02,16,20,11,8.30
2016,02,16,20,12,8.30
2016,02,16,20,13,8.30
2016,02,16,20,14,8.30
2016,02,16,20,15,8.30
2016,02,16,20,16,8.30
2016,02,16,20,17,8.30
2016,02,16,20,18,8.30
2016,02,16,20,19,8.30
2016,02,16,20,20,8.30
2016,02,16,20,21,8.30
2016,02,16,20,22,8.20
2016,02,16,20,23,8.20
2016,02,16,20,24,8.20
2016,02,16,20,25,8.20
2016,02,16,20,26,8.20
2016,02,16,20,27,8.20
2016,02,16,20,28,8.20
2016,02,16,20,29,8.20
2016,02,16,20,30,8.20
2016,02,16,20,31,8.10
2016,02,16,20,32,8.10
2016,02,16,20,33,8.10
2016,02,16,20,34,8.10
2016,02,16,20,35,8.10
2016,02,16,20,36,8.10
2016,02,16,20,37,8.10
2016,02,16,20,38,8.10
2016,02,16,20,39,8.10
2016,02,16,20,40,8.10
2016,02,16,20,41,8.10
2016,02,16,20,42,8.10
2016,02,16,20,43,8.10
2016,02,16,20,44,8.10
2016,02,16,20,45,8.00
2016,02,16,20,46,8.10
2016,02,16,20,47,8.10
2016,02,16,20,48,8.00
2016,02,16,20,49,8.00
2016,02,16,20,50,8.10
2016,02,16,20,51,8.10
2016,02,16,20,52,8.10
2016,02,16,20,53,8.10
2016,02,16,20,54,8.10
2016,02,16,20,55,8.10
2016,02,16,20,56,8.10
2016,02,16,20,57,8.10
2016,02,16,20,58,8.10
2016,02,16,20,59,8.10
2016,02,16,21,00,8.10
2016,02,16,21,01,8.10
2016,02,16,21,02,8.20
2016,02,16,21,03,8.20
2016,02,16,21,04,8.20
2016,02,16,21,05,8.20
2016,02,16,21,06,8.20
2016,02,16,21,07,8.20
2016,02,16,21,08,8.20
2016,02,16,21,09,8.20
2016,02,16,21,10,8.20
2016,02,16,21,11,8.20
2016,02,16,21,12,8.20
2016,02,16,21,13,8.20
2016,02,16,21,14,8.20
2016,02,16,21,15,8.30
2016,02,16,21,16,8.30
2016,02,16,21,17,8.30
2016,02,16,21,18,8.30
2016,02,16,21,19,8.30
2016,02,16,21,20,8.30
2016,02,16,21,21,8.30
2016,02,16,21,22,8.30
2016,02,16,21,23,8.30
2016,02,16,21,24,8.30
2016,02,16,21,25,8.30
2016,02,16,21,26,8.30
2016,02,16,21,27,8.30
2016,02,16,21,28,8.30
2016,02,16,21,29,8.30
2016,02,16,21,30,8.30
2016,02,16,21,31,8.30
2016,02,16,21,32,8.30
2016,02,16,21,33,8.30
2016,02,16,21,34,8.30
2016,02,16,21,35,8.30
2016,02,16,21,36,8.30
2016,02,16,21,37,8.30
2016,02,16,21,38,8.30
2016,02,16,21,39,8.30
2016,02,16,21,40,8.30
2016,02,16,21,41,8.30
2016,02,16,21,42,8.30
2016,02,16,21,43,8.30
2016,02,16,21,44,8.30
2016,02,16,21,45,8.30
2016,02,16,21,46,8.30
2016,02,16,21,47,8.30
2016,02,16,21,48,8.30
2016,02,16,21,49,8.30
2016,02,16,21,50,8.30
2016,02,16,21,51,8.30
2016,02,16,21,52,8.30
2016,02,16,21,53,8.30
2016,02,16,21,54,8.30
2016,02,16,21,55,8.30
2016,02,16,21,56,8.30
2016,02,16,21,57,8.30
2016,02,16,21,58,8.30
2016,02,16,21,59,8.30
2016,02,16,22,00,8.40
2016,02,16,22,01,8.40
2016,02,16,22,02,8.40
2016,02,16,22,03,8.40
2016,02,16,22,04,8.40
2016,02,16,22,05,8.40
2016,02,16,22,06,8.40
2016,02,16,22,07,8.40
2016,02,16,22,08,8.40
2016,02,16,22,09,8.40
2016,02,16,22,10,8.40
2016,02,16,22,11,8.40
2016,02,16,22,12,8.40
2016,02,16,22,13,8.40
2016,02,16,22,14,8.40
2016,02,16,22,15,8.40
2016,02,16,22,16,8.40
2016,02,16,22,17,8.40
2016,02,16,22,18,8.40
2016,02,16,22,19,8.40
2016,02,16,22,20,8.40
2016,02,16,22,21,8.40
2016,02,16,22,22,8.40
2016,02,16,22,23,8.40
2016,02,16,22,24,8.40
2016,02,16,22,25,8.50
2016,02,16,22,26,8.50
2016,02,16,22,27,8.50
2016,02,16,22,28,8.50
2016,02,16,22,29,8.50
2016,02,16,22,30,8.50
2016,02,16,22,31,8.50
2016,02,16,22,32,8.50
2016,02,16,22,33,8.50
2016,02,16,22,34,8.50
2016,02,16,22,35,8.50
2016,02,16,22,36,8.50
2016,02,16,22,37,8.40
2016,02,16,22,38,8.50
2016,02,16,22,39,8.40
2016,02,16,22,40,8.40
2016,02,16,22,41,8.40
2016,02,16,22,42,8.40
2016,02,16,22,43,8.40
2016,02,16,22,44,8.40
2016,02,16,22,45,8.40
2016,02,16,22,46,8.40
2016,02,16,22,47,8.40
2016,02,16,22,48,8.40
2016,02,16,22,49,8.40
2016,02,16,22,50,8.40
2016,02,16,22,51,8.30
2016,02,16,22,52,8.30
2016,02,16,22,53,8.30
2016,02,16,22,54,8.30
2016,02,16,22,55,8.30
2016,02,16,22,56,8.30
2016,02,16,22,57,8.30
2016,02,16,22,58,8.30
2016,02,16,22,59,8.30
2016,02,16,23,00,8.30
2016,02,16,23,01,8.30
2016,02,16,23,02,8.30
2016,02,16,23,03,8.30
2016,02,16,23,04,8.30
2016,02,16,23,05,8.20
2016,02,16,23,06,8.20
2016,02,16,23,07,8.20
2016,02,16,23,08,8.20
2016,02,16,23,09,8.20
2016,02,16,23,10,8.20
2016,02,16,23,11,8.20
2016,02,16,23,12,8.20
2016,02,16,23,13,8.20
2016,02,16,23,14,8.20
2016,02,16,23,15,8.20
2016,02,16,23,16,8.20
2016,02,16,23,17,8.20
2016,02,16,23,18,8.20
2016,02,16,23,19,8.20
2016,02,16,23,20,8.20
2016,02,16,23,21,8.20
2016,02,16,23,22,8.20
2016,02,16,23,23,8.20
2016,02,16,23,24,8.20
2016,02,16,23,25,8.20
2016,02,16,23,26,8.20
2016,02,16,23,27,8.20
2016,02,16,23,28,8.20
2016,02,16,23,29,8.20
2016,02,16,23,30,8.20
2016,02,16,23,31,8.20
2016,02,16,23,32,8.20
2016,02,16,23,33,8.20
2016,02,16,23,34,8.20
2016,02,16,23,35,8.20
2016,02,16,23,36,8.20
2016,02,16,23,37,8.20
2016,02,16,23,38,8.20
2016,02,16,23,39,8.20
2016,02,16,23,40,8.20
2016,02,16,23,41,8.20
2016,02,16,23,42,8.10
2016,02,16,23,43,8.10
2016,02,16,23,44,8.10
2016,02,16,23,45,8.10
2016,02,16,23,46,8.10
2016,02,16,23,47,8.10
2016,02,16,23,48,8.10
2016,02,16,23,49,8.10
2016,02,16,23,50,8.10
2016,02,16,23,51,8.10
2016,02,16,23,52,8.00
2016,02,16,23,53,8.00
2016,02,16,23,54,8.00
2016,02,16,23,55,8.00
2016,02,16,23,56,8.00
2016,02,16,23,57,8.00
2016,02,16,23,58,8.00
2016,02,16,23,59,8.00
